AirNav   Bose ProFlight Aviation Headset
 
 1228 users online  

KTFP McCampbell-Porter Airport
Ingleside, Texas, USA

GOING TO INGLESIDE?


FAA INFORMATION EFFECTIVE 08 NOVEMBER 2018

Location

FAA Identifier: TFP
Lat/Long: 27-54-46.9000N / 097-12-41.4000W
27-54.781667N / 097-12.690000W
27.9130278 / -97.2115000
(estimated)
Elevation: 17.6 ft. / 5 m (estimated)
Variation: 07E (1985)
From city: 2 miles N of INGLESIDE, TX
Time zone: UTC -6 (UTC -5 during Daylight Saving Time)
Zip code: 78336

Airport Operations

Airport use: Open to the public
Activation date: 03/1991
Control tower: no
ARTCC: HOUSTON CENTER
FSS: SAN ANGELO FLIGHT SERVICE STATION
NOTAMs facility: SJT (NOTAM-D service available)
Attendance: 0800-1800
Wind indicator: lighted
Segmented circle: yes
Lights: MIRL RY 13/31 PRESET LOW INTST; TO INCR INTST ACTVT - CTAF (122.7).
Beacon: white-green (lighted land airport)
Operates sunset to sunrise.

Airport Communications

CTAF/UNICOM: 122.7
WX AWOS-3: 118.775 (361-758-8961)
CORPUS APPROACH: 120.9
CORPUS DEPARTURE: 120.9
WX AWOS-3 at RAS (9 nm SE): 118.425 (361-749-0537)
WX ASOS at RKP (14 nm NE): 119.275 (361-729-2372)
WX ASOS at CRP (18 nm SW): PHONE 361-289-0191
WX AWOS-1 at T69 (19 nm NW): 118.25 (361-364-1844)

Nearby radio navigation aids

VOR radial/distance  VOR name  Freq  Var
CRPr078/12.4CORPUS CHRISTI VORTAC115.5009E
NGPr012/14.3TRUAX VORTAC114.0006E

 
NDB name  Hdg/Dist  Freq  Var  ID
MELLON RANCH175/22.037506EMNO -- -. ---

Airport Services

Fuel available: 100LL JET-A
FUEL SELF-SERVICE.
Parking: hangars and tiedowns
Airframe service: MAJOR
Powerplant service: MAJOR

Runway Information

Runway 13/31

Dimensions: 5000 x 75 ft. / 1524 x 23 m
Surface: asphalt, in good condition
Runway edge lights: medium intensity
RUNWAY 13  RUNWAY 31
Latitude: 27-55.096700N27-54.466995N
Longitude: 097-12.989438W097-12.389185W
Elevation: 15.0 ft.13.2 ft.
Traffic pattern: leftleft
Runway heading: 133 magnetic, 140 true313 magnetic, 320 true
Markings: nonprecision, in good conditionnonprecision, in good condition
Visual slope indicator: 2-light PAPI on left (3.00 degrees glide path)2-light PAPI on left (3.00 degrees glide path)
Touchdown point: yes, no lightsyes, no lights

Airport Ownership and Management from official FAA records

Ownership: Publicly-owned
Owner: SAN PATRICIO COUNTY
400 WEST SINTON ST.
SINTON, TX 78387
Phone 361-758-2000
Manager: PAUL LEHNERT
3141 FM 3512
ARANSAS PASS, TX 78336
Phone (361) 758-5018
ALT PH# 361-222-8417.

Airport Operational Statistics

Aircraft based on the field: 41
Single engine airplanes: 34
Multi engine airplanes: 5
Jet airplanes: 1
Helicopters: 1
    
Aircraft operations: avg 85/day *
48% local general aviation
32% transient general aviation
19% military
* for 12-month period ending 09 March 2017

Additional Remarks

FOR CD CTC CRP APCH AT 361-299-4230.

Instrument Procedures

NOTE: All procedures below are presented as PDF files. If you need a reader for these files, you should download the free Adobe Reader.

NOT FOR NAVIGATION. Please procure official charts for flight.
FAA instrument procedures published for use from 8 November 2018 at 0901Z to 6 December 2018 at 0900Z.

 
IAPs - Instrument Approach Procedures
RNAV (GPS) RWY 13   download (210KB)
RNAV (GPS) RWY 31   download (214KB)
NOTE: Special Alternate Minimums apply   download (29KB)

Other nearby airports with instrument procedures:

KRAS - Mustang Beach Airport (9 nm SE)
KRKP - Aransas County Airport (14 nm NE)
KNGP - Corpus Christi Naval Air Station/Truax Field (14 nm S)
KCRP - Corpus Christi International Airport (18 nm SW)
T69 - Alfred C 'Bubba' Thomas Airport (19 nm NW)
 
Loc | Ops | Rwys | IFR | FBO | Links
Com | Nav | Svcs | Stats | Notes


 
Area around KTFP (McCampbell-Porter Airport)
 
Road maps at: MapQuest Bing Google
 
Aerial photo
WARNING: Photo may not be current or correct
Aerial photo of KTFP (McCampbell-Porter Airport)
Do you have a better or more recent aerial photo of McCampbell-Porter Airport that you would like to share? If so, please send us your photo.

 
Sectional chart

 
Airport diagram
CAUTION: Diagram may not be current
Diagram of KTFP (McCampbell-Porter Airport)
 
Airport distance calculator
Flying to McCampbell-Porter Airport? Find the distance to fly.

From to KTFP

Sunrise and sunset
Times for 21-Nov-2018
 Local
(UTC-6)
 Zulu
(UTC)
Morning civil twilight06:3112:31
Sunrise06:5612:56
Sunset17:3323:33
Evening civil twilight17:5923:59

Current date and time
Zulu (UTC)  21-Nov-2018 19:55:16
Local (UTC-6)  21-Nov-2018 13:55:16
 
METAR
KTFP 211935Z AUTO 03014KT 10SM SCT021 SCT040 OVC050 15/12 A3022 RMK AO2 LTG DSNT NE T01520115 PNO
KRAS 
9nm SE 
211935Z AUTO 03014KT 10SM -DZ OVC050 14/12 A3022 RMK AO2 LTG DSNT NE AND E T01440122
KRKP 
13nm NE 
211853Z AUTO 04012G16KT 9SM OVC060 14/11 A3025 RMK AO2 RAE13 SLP243 P0000 T01440106
KNGP 
14nm S 
211856Z 04017KT 6SM -RA BR BKN050 BKN060 OVC070 15/13 A3022 RMK AO2 SLP233 P0003 T01500128
KCRP 
18nm SW 
211923Z 04010KT 6SM -RA BR BKN022 OVC046 14/12 A3023 RMK AO2 P0000 T01440122
TAF
KNGP 
14nm S 
2115/2215 04015KT 9999 SCT035 OVC050 641309 642201 QNH3024INS TEMPO 2116/2118 8000 -RA BR FEW015 OVC030 FM211800 03016G24KT 8000 -RA BR SCT012 OVC025 641209 642202 QNH3018INS TEMPO 2118/2121 03018G25KT 6000 SHRA BR SCT010 OVC020 FM212100 03018G26KT 6000 -RA BR BKN010 OVC020 600000 510004 QNH3017INS TEMPO 2121/2203 3200 +SHRA BR BKN008 OVC012 FM220300 03020G28KT 9999 SCT010 OVC025 510004 QNH3021INS FM220900 02015G21KT 8000 BR BKN008 OVC015 500000 QNH3022INS TEMPO 2209/2215 4000 -DZ BR OVC006 T16/
KCRP 
18nm SW 
211737Z 2118/2218 03013KT P6SM -RA SCT025 OVC040 FM212100 03014KT 5SM -SHRA BKN015 OVC030 TEMPO 2121/2201 2SM SHRA SCT015 OVC025 FM220500 02012KT P6SM -SHRA OVC009 FM221200 02009KT P6SM OVC020
NOTAMs
Click for the latest NOTAMs
NOTAMs are issued by the DoD/FAA and will open in a separate window not controlled by AirNav.

 

 
 

FBO, Fuel Providers, and Aircraft Ground Support

  
 Business Name 
 
 Contact 
 
 Services / Description 
 
Fuel Prices
 
Comments
  
Corpus Christi Jet Center UNICOM 122.70
361-758-2000
[web site]
[email]
We will match KCRP contract fuel rates!
More info and photos of Corpus Christi Jet Center
Avfuel
100LL Jet A
FS $4.80 $4.60 
SS $4.20 $4.35 
 Updated 20-Nov-2018
 
   6 read write
FS=Full service
SS=Self service
Update Fuel Prices
 

Would you like to see your business listed on this page?

 If your business provides an interesting product or service to pilots, flight crews, aircraft, or users of the McCampbell-Porter Airport, you should consider listing it here.  To start the listing process, click on the button below
 
Add a business
 

Other Pages about McCampbell-Porter Airport

Update a link
 
Copyright © AirNav, LLC. All rights reserved. Privacy Policy  Contact